Location: Unspecified
(0.0000°N, 0.0000°E)
Time: 04:39:41
(UTC+00:00)

CUTE-I - Visible Passes

Search period start: 25 July 2024 00:00
Search period end: 04 August 2024 00:00
Orbit: 806 x 822 km, 98.7° (Epoch: 24 July)

Date Brightness Start Highest point End Pass type
(mag) Time Alt. Az. Time Alt. Az. Time Alt. Az.
25 Jul ? 05:23:25 10° NE 05:28:17 36° ESE 05:33:10 10° SSE visible
26 Jul ? 05:02:03 10° ENE 05:05:51 20° ESE 05:09:39 10° SSE visible
27 Jul ? 04:43:09 10° E 04:43:25 10° ESE 04:43:42 10° ESE visible
27 Jul ? 18:58:26 10° SW 19:01:44 17° WSW 19:05:03 10° WNW visible
28 Jul ? 18:34:40 10° SSW 18:39:18 31° WSW 18:43:55 10° NW visible
29 Jul ? 05:33:00 10° NNE 05:38:07 48° ESE 05:43:16 10° S visible
30 Jul ? 05:11:18 10° NE 05:15:41 26° ESE 05:20:03 10° SSE visible
31 Jul ? 04:50:34 10° ENE 04:53:14 14° ESE 04:55:53 10° SE visible
31 Jul ? 19:09:20 10° SW 19:11:32 13° WSW 19:13:44 10° WNW visible
01 Aug ? 18:44:56 10° SSW 18:49:06 24° WSW 18:53:16 10° NW visible
03 Aug ? 05:20:42 10° NE 05:25:28 34° ESE 05:30:16 10° SSE visible
